Погода в Шеино

Россия / Белгородская область     50°40′51″N   36°53′08″E
темп.,
°C
ветер,
м/с
пор.,
м/с
влажн.,
%
обл.,
%
осадки,
мм/ч
давл.,
гПа
погр.,
м
10 апреля, сб
сб1000:00+4с346776 0.0 102667
03:00+3ссв33725 0.0 102744
06:00+2ссв33765 0.0 102744
09:00+6св35614 0.0 1027393
12:00+9ссв34415 0.0 10261568
15:00+11с44375 0.0 10251826
18:00+10ссв34435 0.0 10251110
21:00+7ссв34565 0.0 102658
11 апреля, вс
вс1100:00+5ссв33580 0.0 102742
03:00+4ссв34625 0.0 102871
06:00+3ссв476818 0.0 1028121
09:00+7ссв5954100 0.0 1029595
12:00+11св6739100 0.0 10281102
15:00+12ссв6837100 0.0 10271099
18:00+11св61046100 0.0 1027818
21:00+8ссв51155100 0.0 1027368
12 апреля, пн
пн1200:00+8ссв61257100 0.0 1026474
03:00+7св51067100 0.0 1025350
06:00+6св51185100 0.0 1025291
09:00+10всв71183100 0.0 1024369
12:00+15всв6862100 0.0 1022584
15:00+19вюв6945100 0.0 10211248
18:00+18вюв4953100 0.0 1020237
21:00+14юв4136194 0.0 1022327
13 апреля, вт
вт1300:00+13вюв51365100 0.0 1022430
03:00+12юв51277100 0.0 1022421
06:00+11юв41082100 0.0 1022420
09:00+13юв5974100 0.0 1022643
12:00+17юв69525 0.0 10211492
15:00+18юв5850100 0.0 1020716
18:00+15юв51152100 0.0 1020440
21:00+13юв3768100 0.0 1020297
14 апреля, ср
ср1400:00+12юв487497 0.0 1019352
03:00+10юв368763 0.0 1019126
06:00+10юв3687100 0.0 1019151
09:00+12ююв3684100 0.0 1019274
12:00+14ю4675100 0.0 1019789
15:00+13ююв3578100 0.2 1018438
18:00+15ююв356559 0.0 1017597
21:00+12юв3681100 0.1 1017108